Hartford, CT

12:42 AM EDT on July 23, 2017 (GMT -0400)
Hartford-brainard

Weather History for KHFD - March, 2014

Change the Weather History Date:

Thursday, March 27, 2014

  Actual Average Record
Temperature  
Mean Temperature 32 °F -  
Max Temperature 44 °F 51 °F 81 °F (1998)
Min Temperature 21 °F 29 °F 18 °F (1974)
Degree Days  
Heating Degree Days 32    
Moisture  
Dew Point 8 °F    
Average Humidity 39    
Maximum Humidity 64    
Minimum Humidity 18    
Precipitation  
Precipitation 0.00 in - - ()
Sea Level Pressure  
Sea Level Pressure 30.30 in    
Wind  
Wind Speed 9 mph (WSW)    
Max Wind Speed 15 mph    
Max Gust Speed 21 mph    
Visibility 10 miles    
Events      
Averages and records for this station are not official NWS values.
T = Trace of Precipitation, MM = Missing Value Source: NWS Daily Summary

Daily Weather History Graph

Daily Weather History Graph

Search for Another Location

Airport or City:

Trip Planner

Search our weather history database for the weather conditions in past years. The results will help you decide how hot, cold, wet, or windy it might be!

Date:

Astronomy

Mar. 27, 2014 Rise Set
Actual Time 6:42 AM EDT 7:10 PM EDT
Civil Twilight 6:14 AM EDT 7:38 PM EDT
Nautical Twilight 5:41 AM EDT 8:11 PM EDT
Astronomical Twilight 5:07 AM EDT 8:45 PM EDT
Moon 4:34 AM EDT (3/27) 3:52 PM EDT (3/27)
Length of Visible Light 13h 24m
Length of Day
12h 28m
Waning Crescent, 13% of the Moon is Illuminated
Mar 27
Waning Crescent
Mar 30
New
Apr 7
First Quarter
Apr 15
Full
Apr 22
Last Quarter

Hourly Weather History & Observations

Time (EDT) Temp. Windchill Dew Point Humidity Pressure Visibility Wind Dir Wind Speed Gust Speed Precip Events Conditions
12:53 AM 23.0 °F 11.7 °F 3.0 °F 42% 30.17 in 10.0 mi NW 11.5 mph 20.7 mph N/A   Clear
1:53 AM 21.9 °F 10.4 °F 3.9 °F 46% 30.19 in 10.0 mi NW 11.5 mph 20.7 mph N/A   Clear
2:53 AM 21.9 °F 11.0 °F 5.0 °F 48% 30.22 in 10.0 mi NW 10.4 mph 18.4 mph N/A   Clear
3:53 AM 21.9 °F 11.7 °F 6.1 °F 51% 30.25 in 10.0 mi WNW 9.2 mph - N/A   Clear
4:53 AM 21.9 °F 11.0 °F 6.1 °F 51% 30.30 in 10.0 mi WNW 10.4 mph - N/A   Clear
5:53 AM 21.9 °F 11.7 °F 5.0 °F 48% 30.32 in 10.0 mi NW 9.2 mph 19.6 mph N/A   Clear
6:53 AM 21.0 °F 14.6 °F 3.9 °F 48% 30.36 in 10.0 mi NNW 4.6 mph - N/A   Clear
7:53 AM 23.0 °F 14.7 °F 3.9 °F 44% 30.37 in 10.0 mi NW 6.9 mph - N/A   Clear
8:53 AM 26.1 °F 19.4 °F 3.0 °F 37% 30.39 in 10.0 mi NW 5.8 mph - N/A   Clear
9:53 AM 28.0 °F 24.2 °F 3.9 °F 36% 30.39 in 10.0 mi NNW 3.5 mph - N/A   Clear
10:53 AM 30.9 °F - 3.9 °F 32% 30.39 in 10.0 mi North - - N/A   Clear
11:53 AM 33.1 °F 27.7 °F 3.9 °F 29% 30.36 in 10.0 mi South 5.8 mph - N/A   Clear
12:53 PM 36.0 °F 33.3 °F 3.9 °F 26% 30.32 in 10.0 mi Variable 3.5 mph - N/A   Clear
1:53 PM 39.9 °F 33.9 °F 3.9 °F 22% 30.32 in 10.0 mi WSW 9.2 mph - N/A   Clear
2:53 PM 43.0 °F 37.2 °F 3.9 °F 20% 30.28 in 10.0 mi South 10.4 mph 17.3 mph N/A   Clear
3:53 PM 44.1 °F 39.5 °F 3.0 °F 18% 30.28 in 10.0 mi SSW 8.1 mph - N/A   Clear
4:53 PM 41.0 °F 34.3 °F 10.9 °F 29% 30.28 in 10.0 mi SSE 11.5 mph - N/A   Clear
5:53 PM 42.1 °F 37.1 °F 8.1 °F 25% 30.28 in 10.0 mi South 8.1 mph - N/A   Clear
6:53 PM 39.0 °F 31.0 °F 9.0 °F 29% 30.29 in 10.0 mi South 13.8 mph - N/A   Clear
7:53 PM 37.0 °F 28.1 °F 10.0 °F 33% 30.29 in 10.0 mi South 15.0 mph 19.6 mph N/A   Clear
8:53 PM 36.0 °F 29.0 °F 15.1 °F 43% 30.30 in 10.0 mi South 9.2 mph - N/A   Mostly Cloudy
9:53 PM 35.1 °F 26.9 °F 19.0 °F 52% 30.29 in 10.0 mi South 11.5 mph 16.1 mph N/A   Partly Cloudy
10:53 PM 35.1 °F 27.9 °F 21.0 °F 57% 30.29 in 10.0 mi South 9.2 mph - N/A   Mostly Cloudy
11:53 PM 35.1 °F 28.6 °F 24.1 °F 64% 30.27 in 10.0 mi South 8.1 mph - N/A   Overcast